[[{"header":{"parameterUnit":"m.s-1","parameterCategory":1,"la1":30.2991,"la2":30.254,"lo1":-89.0895,"lo2":-89.0444,"dy":0.0017,"dx":0.0017,"nx":28,"ny":28,"refTime":"2025-02-09T03:00:00:Z","depth":0,"parameterNumber":2,"parameterNumberName":"U-component_of_WINDS"},"data":[0,0,0,0,0,0,0,0,0,0,0,0,0,0,0,0,0,0,0,0,0,0,0,0,0,0,0,0,0,0,0,0,0,0,0,0,0,0,0,0,0,0,0,0,0,0,0,0,0,0,0,0,0,0,0,0,0,0,-2.4269,-2.4269,0,-2.4227,-2.4226,-2.4226,-2.4167,-2.4166,-2.4165,-2.4164,-2.4123,-2.4123,-2.4123,0,0,0,0,0,0,0,0,0,0,0,0,0,-2.4304,-2.4303,-2.4269,-2.4269,-2.4268,-2.4227,-2.4226,-2.4226,-2.4167,-2.4166,-2.4165,-2.4163,-2.4123,-2.4123,-2.4123,0,0,0,0,0,0,0,0,0,0,0,0,0,-2.4278,-2.4303,-2.4269,-2.4234,-2.423,-2.4227,-2.4226,-2.4226,-2.4167,-2.4166,-2.4164,-2.4163,-2.4123,-2.4123,-2.4123,-2.4151,0,0,-2.4122,-2.4122,0,0,0,0,0,0,0,0,-2.4279,-2.4277,-2.424,-2.4236,-2.4232,-2.42,-2.4223,-2.4201,-2.4168,-2.4191,-2.4164,-2.4162,-2.415,-2.4148,-2.4143,-2.415,-2.4148,-2.4122,-2.4122,-2.4122,-2.4122,0,0,0,0,0,0,0,-2.4281,-2.4278,-2.4252,-2.4239,-2.4235,-2.4221,-2.4216,-2.4219,-2.418,-2.4189,-2.4185,-2.418,-2.4148,-2.4143,-2.4142,-2.4147,-2.4122,-2.4122,-2.4122,-2.4122,-2.4178,-2.4179,0,0,0,0,0,0,-2.4288,-2.428,-2.4254,-2.4251,-2.4252,-2.4222,-2.4216,-2.4212,-2.418,-2.4173,-2.4182,-2.4178,-2.4145,-2.4142,-2.414,-2.4172,-2.4122,-2.4121,-2.4121,-2.4176,-2.4178,-2.418,0,0,0,0,0,0,-2.4289,-2.4286,-2.4256,-2.4264,-2.4259,-2.4223,-2.4219,-2.4212,-2.4207,-2.4174,-2.4167,-2.4184,-2.4143,-2.414,-2.4149,-2.417,-2.4121,-2.4121,-2.4174,-2.4177,-2.4179,-2.4237,0,0,0,0,0,0,-2.429,-2.4287,-2.4296,-2.4265,-2.4259,-2.4264,-2.422,-2.4212,-2.4207,-2.4201,-2.4174,-2.4168,-2.4142,-2.415,-2.4149,-2.4169,-2.4121,-2.4172,-2.4175,-2.4178,-2.4233,-2.4242,-2.4248,0,0,0,0,0,-2.4291,-2.4314,-2.4297,-2.4294,-2.427,-2.4266,-2.4262,-2.4231,-2.4209,-2.4219,-2.4198,-2.4169,-2.4169,-2.4151,-2.415,-2.417,-2.4171,-2.4174,-2.4178,-2.423,-2.424,-2.4248,0,0,0,0,0,0,-2.4349,-2.4309,-2.429,-2.4303,-2.4288,-2.4256,-2.4267,-2.4242,-2.4234,-2.4229,-2.4191,-2.4185,-2.42,-2.4186,-2.4168,-2.4198,-2.4165,-2.4169,-2.4206,-2.4215,-2.4222,-2.4225,-2.4121,0,0,0,0,0,-2.4363,-2.4362,-2.4328,-2.4343,-2.4336,-2.4303,-2.43,-2.4277,-2.4261,-2.4254,-2.4234,-2.422,-2.4216,-2.4215,-2.421,-2.4232,-2.4226,-2.4245,-2.4253,-2.4259,-2.4262,-2.4275,-2.4283,-2.4192,-2.4192,-2.4192,0,0,-2.4392,-2.4371,-2.4372,-2.4354,-2.434,-2.4341,-2.4298,-2.43,-2.4301,-2.4255,-2.4262,-2.4247,-2.4229,-2.4245,-2.4251,-2.4234,-2.4287,-2.4264,-2.4269,-2.4269,-2.4279,-2.4288,-2.4296,-2.4194,-2.4194,-2.4194,0,0,-2.4445,-2.4429,-2.444,-2.4427,-2.4406,-2.4385,-2.4388,-2.436,-2.4348,-2.4354,-2.432,-2.4322,-2.4316,-2.4305,-2.4299,-2.4352,-2.4326,-2.4352,-2.4391,-2.4403,-2.441,-2.4417,-2.4436,-2.4444,-2.4355,-2.4356,-2.4356,0,-2.4484,-2.4483,-2.4449,-2.4454,-2.4448,-2.4406,-2.4419,-2.4408,-2.4387,-2.4385,-2.4366,-2.436,-2.4345,-2.4359,-2.4372,-2.4368,-2.4371,-2.4354,-2.4412,-2.4418,-2.4423,-2.4441,-2.4449,-2.4359,-2.4358,-2.4358,-2.4358,0,-2.4533,-2.4533,-2.4545,-2.4525,-2.4521,-2.4529,-2.4498,-2.4498,-2.4477,-2.4458,-2.4467,-2.4448,-2.4439,-2.4441,-2.4419,-2.4452,-2.4442,-2.4419,-2.4385,-2.4436,-2.4452,-2.4459,-2.4364,-2.4362,-2.4361,-2.4361,0,0,-2.4618,-2.4582,-2.4587,-2.4579,-2.4554,-2.4554,-2.4563,-2.4553,-2.4555,-2.4543,-2.4549,-2.4547,-2.4526,-2.4519,-2.4497,-2.4508,-2.4552,-2.4483,-2.4482,-2.4496,-2.4589,-2.4606,-2.4615,-2.4536,-2.4537,-2.4538,-2.459,0,-2.4667,-2.4677,-2.4648,-2.4666,-2.4667,-2.4629,-2.4637,-2.4623,-2.4607,-2.4606,-2.4588,-2.4587,-2.4558,-2.4554,-2.4564,-2.4545,-2.457,-2.4541,-2.4542,-2.4543,-2.4547,-2.4623,-2.4641,-2.4692,-2.4596,-2.4597,-2.4598,0,-2.4724,-2.4715,-2.4733,-2.471,-2.4709,-2.4716,-2.4707,-2.4706,-2.4692,-2.4679,-2.4673,-2.4647,-2.4656,-2.4625,-2.4636,-2.4617,-2.4616,-2.4608,-2.4609,-2.4607,-2.4573,-2.4624,-2.4707,-2.4714,-2.4608,-2.4607,-2.4607,0,-2.4785,-2.4778,-2.4788,-2.4783,-2.4755,-2.4761,-2.4751,-2.4734,-2.4732,-2.4724,-2.4723,-2.4717,-2.4714,-2.471,-2.4685,-2.4665,-2.47,-2.4667,-2.4691,-2.4691,-2.4699,-2.4698,-2.4783,-2.4699,-2.4699,-2.4699,-2.4699,0,-2.4842,-2.4855,-2.4816,-2.4822,-2.4836,-2.4804,-2.4819,-2.4805,-2.4792,-2.4796,-2.4764,-2.4768,-2.4735,-2.4736,-2.4717,-2.473,-2.4729,-2.472,-2.4714,-2.4722,-2.4723,-2.472,-2.4716,-2.4701,-2.4701,-2.47,-2.47,0,-2.4912,-2.4886,-2.4895,-2.4869,-2.4863,-2.4875,-2.4854,-2.4859,-2.4842,-2.4848,-2.4847,-2.482,-2.482,-2.4795,-2.4791,-2.4778,-2.4799,-2.4788,-2.4804,-2.48,-2.4825,-2.4823,-2.491,-2.492,-2.4831,-2.4832,-2.4833,0,-2.4949,-2.4958,-2.4934,-2.4934,-2.4925,-2.4926,-2.4923,-2.4894,-2.4892,-2.4878,-2.4886,-2.4884,-2.4881,-2.4884,-2.4864,-2.4862,-2.485,-2.488,-2.4849,-2.4857,-2.485,-2.485,-2.4851,-2.4887,-2.4888,-2.4889,-2.4889,0,-2.5019,-2.5006,-2.5003,-2.4997,-2.4995,-2.4988,-2.498,-2.4982,-2.495,-2.4951,-2.4951,-2.4949,-2.4945,-2.4944,-2.4938,-2.4928,-2.4904,-2.49,-2.4905,-2.4913,-2.4922,-2.4918,-2.4822,-2.4898,-2.4897,-2.4896,-2.4896,-2.4895,-2.5073,-2.508,-2.5065,-2.5063,-2.5054,-2.5048,-2.5052,-2.5036,-2.5035,-2.5029,-2.5012,-2.5016,-2.5004,-2.4993,-2.4986,-2.4989,-2.4974,-2.4982,-2.4983,-2.4986,-2.4991,-2.4922,-2.4988,-2.4988,-2.4988,-2.4987,-2.4987,0,-2.5141,-2.513,-2.5129,-2.5119,-2.5118,-2.5096,-2.5086,-2.5088,-2.5091,-2.5081,-2.5079,-2.5081,-2.508,-2.5062,-2.5059,-2.5066,-2.5055,-2.5066,-2.5065,-2.5063,-2.5004,-2.5,-2.5075,-2.5075,-2.5075,-2.5075,-2.5075,-2.5075,-2.5176,-2.5187,-2.5173,-2.518,-2.5169,-2.5172,-2.5169,-2.5163,-2.5156,-2.5158,-2.5158,-2.5146,-2.5133,-2.513,-2.513,-2.5124,-2.5125,-2.514,-2.5131,-2.5076,-2.5067,-2.5059,-2.5055,-2.5141,-2.5141,-2.519,-2.5191,-2.5191]},{"header":{"parameterUnit":"m.s-1","parameterCategory":1,"la1":30.2991,"la2":30.254,"lo1":-89.0895,"lo2":-89.0444,"dy":0.0017,"dx":0.0017,"nx":28,"ny":28,"refTime":"2025-02-09T03:00:00:Z","depth":0,"parameterNumber":3,"parameterNumberName":"V-component_of_WINDS"},"data":[0,0,0,0,0,0,0,0,0,0,0,0,0,0,0,0,0,0,0,0,0,0,0,0,0,0,0,0,0,0,0,0,0,0,0,0,0,0,0,0,0,0,0,0,0,0,0,0,0,0,0,0,0,0,0,0,0,0,-0.287,-0.287,0,-0.287,-0.287,-0.287,-0.2896,-0.2897,-0.2897,-0.2898,-0.2895,-0.2894,-0.2893,0,0,0,0,0,0,0,0,0,0,0,0,0,-0.289,-0.289,-0.287,-0.287,-0.287,-0.287,-0.287,-0.287,-0.2896,-0.2897,-0.2897,-0.2898,-0.2895,-0.2894,-0.2893,0,0,0,0,0,0,0,0,0,0,0,0,0,-0.2885,-0.2889,-0.287,-0.2883,-0.2884,-0.287,-0.287,-0.287,-0.2896,-0.2897,-0.2898,-0.2899,-0.2895,-0.2894,-0.2893,-0.2865,0,0,-0.289,-0.2889,0,0,0,0,0,0,0,0,-0.2885,-0.2884,-0.2881,-0.2882,-0.2884,-0.2884,-0.2876,-0.2868,-0.2895,-0.2891,-0.2898,-0.2899,-0.289,-0.289,-0.2887,-0.2865,-0.2865,-0.289,-0.2889,-0.2889,-0.2888,0,0,0,0,0,0,0,-0.2885,-0.2884,-0.287,-0.2881,-0.2883,-0.2888,-0.2888,-0.2874,-0.2885,-0.2892,-0.2894,-0.2893,-0.2891,-0.2888,-0.2887,-0.2865,-0.289,-0.2889,-0.2888,-0.2888,-0.2818,-0.2816,0,0,0,0,0,0,-0.2884,-0.2884,-0.287,-0.287,-0.2887,-0.2887,-0.2887,-0.2883,-0.2885,-0.2886,-0.2892,-0.2894,-0.2889,-0.2888,-0.2887,-0.2853,-0.2889,-0.2888,-0.2887,-0.2819,-0.2817,-0.2816,0,0,0,0,0,0,-0.2885,-0.2883,-0.287,-0.2877,-0.2876,-0.2885,-0.288,-0.2882,-0.2879,-0.2886,-0.2887,-0.2888,-0.289,-0.2889,-0.287,-0.2854,-0.2887,-0.2886,-0.282,-0.2818,-0.2817,-0.2786,0,0,0,0,0,0,-0.2885,-0.2883,-0.2873,-0.2877,-0.2876,-0.2854,-0.2879,-0.2881,-0.2878,-0.288,-0.2882,-0.2883,-0.2891,-0.2872,-0.2869,-0.2853,-0.2885,-0.2822,-0.2819,-0.2817,-0.2789,-0.2784,-0.2779,0,0,0,0,0,-0.2886,-0.2865,-0.2873,-0.2871,-0.2864,-0.2853,-0.2852,-0.2863,-0.2876,-0.2866,-0.287,-0.2883,-0.2856,-0.287,-0.2867,-0.285,-0.2823,-0.282,-0.2817,-0.2791,-0.2785,-0.2779,0,0,0,0,0,0,-0.2858,-0.2866,-0.2875,-0.2854,-0.2853,-0.2858,-0.2845,-0.2856,-0.285,-0.2853,-0.2866,-0.2865,-0.2844,-0.2845,-0.2861,-0.2822,-0.2841,-0.2838,-0.2822,-0.2816,-0.2812,-0.2812,-0.2884,0,0,0,0,0,-0.285,-0.2841,-0.2848,-0.2829,-0.2828,-0.2837,-0.2832,-0.284,-0.2839,-0.2838,-0.2841,-0.2838,-0.2829,-0.2823,-0.2815,-0.2789,-0.2788,-0.2775,-0.2771,-0.2767,-0.2764,-0.2748,-0.2742,-0.2807,-0.2807,-0.2807,0,0,-0.2833,-0.2836,-0.2829,-0.2824,-0.2824,-0.2813,-0.2836,-0.2824,-0.2816,-0.2836,-0.2819,-0.282,-0.2818,-0.2795,-0.2785,-0.2795,-0.2745,-0.2763,-0.276,-0.2759,-0.2745,-0.2739,-0.2733,-0.2805,-0.2806,-0.2806,0,0,-0.2796,-0.2798,-0.2782,-0.2781,-0.278,-0.2786,-0.2782,-0.2784,-0.2786,-0.2769,-0.2783,-0.2773,-0.2757,-0.2755,-0.2751,-0.271,-0.2722,-0.2707,-0.2683,-0.2667,-0.2662,-0.2658,-0.2642,-0.2636,-0.2704,-0.2704,-0.2704,0,-0.2774,-0.276,-0.2772,-0.2759,-0.2755,-0.2773,-0.2756,-0.2754,-0.2751,-0.2747,-0.2758,-0.2738,-0.2738,-0.2714,-0.2703,-0.27,-0.2695,-0.2708,-0.2662,-0.2658,-0.2654,-0.2639,-0.2633,-0.2702,-0.2702,-0.2703,-0.2703,0,-0.2733,-0.2723,-0.271,-0.2706,-0.2701,-0.2686,-0.2694,-0.2687,-0.2694,-0.2698,-0.2679,-0.2679,-0.2671,-0.2665,-0.2673,-0.2642,-0.2648,-0.266,-0.268,-0.2645,-0.2632,-0.2626,-0.27,-0.27,-0.2701,-0.2701,0,0,-0.268,-0.2682,-0.2677,-0.2675,-0.2675,-0.2666,-0.2651,-0.2643,-0.2636,-0.2632,-0.2619,-0.2604,-0.2615,-0.2611,-0.2618,-0.2605,-0.2571,-0.2619,-0.2619,-0.2609,-0.2534,-0.2525,-0.2518,-0.2578,-0.2577,-0.2576,-0.2534,0,-0.2644,-0.262,-0.2629,-0.2603,-0.2592,-0.2608,-0.2594,-0.2591,-0.2594,-0.2584,-0.2586,-0.2575,-0.2591,-0.2589,-0.2576,-0.2578,-0.2556,-0.2581,-0.2564,-0.2563,-0.2564,-0.2511,-0.2502,-0.2462,-0.2529,-0.2528,-0.2527,0,-0.2599,-0.2593,-0.2567,-0.2566,-0.2562,-0.255,-0.2543,-0.2534,-0.253,-0.2532,-0.2527,-0.2536,-0.2519,-0.2538,-0.2514,-0.2531,-0.2524,-0.2524,-0.2523,-0.2521,-0.2544,-0.2508,-0.245,-0.2444,-0.2519,-0.252,-0.2521,0,-0.2562,-0.2548,-0.253,-0.2527,-0.2527,-0.2518,-0.2517,-0.2514,-0.2508,-0.2501,-0.2497,-0.2487,-0.2482,-0.2474,-0.2479,-0.2493,-0.2453,-0.2474,-0.2454,-0.2454,-0.2445,-0.2446,-0.2385,-0.2441,-0.2441,-0.2442,-0.2442,0,-0.2521,-0.2503,-0.2513,-0.2502,-0.2482,-0.2492,-0.2471,-0.2472,-0.2469,-0.2457,-0.2469,-0.2457,-0.2466,-0.2454,-0.2458,-0.2436,-0.2434,-0.2434,-0.2435,-0.2433,-0.2433,-0.2429,-0.2432,-0.244,-0.244,-0.2441,-0.2441,0,-0.2477,-0.2483,-0.2464,-0.2464,-0.2464,-0.2449,-0.2449,-0.2438,-0.244,-0.2424,-0.2421,-0.2425,-0.2411,-0.2416,-0.2401,-0.2404,-0.2376,-0.2381,-0.2378,-0.2379,-0.2358,-0.236,-0.2293,-0.2284,-0.2346,-0.2346,-0.2345,0,-0.245,-0.2437,-0.2436,-0.2429,-0.2427,-0.2416,-0.241,-0.2418,-0.241,-0.2404,-0.2393,-0.238,-0.2371,-0.2348,-0.2349,-0.2337,-0.2341,-0.2318,-0.234,-0.2337,-0.234,-0.234,-0.2338,-0.2314,-0.2313,-0.2313,-0.2312,0,-0.2401,-0.2404,-0.2396,-0.2387,-0.2379,-0.2373,-0.2367,-0.236,-0.2368,-0.2358,-0.2345,-0.2337,-0.2322,-0.2309,-0.2298,-0.2295,-0.2304,-0.2306,-0.23,-0.2298,-0.2296,-0.2296,-0.2366,-0.2307,-0.2308,-0.2308,-0.2308,-0.2309,-0.2365,-0.2353,-0.235,-0.2339,-0.2336,-0.233,-0.2319,-0.232,-0.2309,-0.2298,-0.2302,-0.2286,-0.228,-0.2267,-0.2262,-0.2249,-0.2257,-0.225,-0.2248,-0.2246,-0.2243,-0.2298,-0.2247,-0.2247,-0.2247,-0.2247,-0.2247,0,-0.2316,-0.2315,-0.2304,-0.2296,-0.2287,-0.2297,-0.229,-0.2282,-0.2268,-0.2262,-0.2252,-0.2235,-0.2222,-0.2221,-0.2208,-0.2197,-0.22,-0.2193,-0.2194,-0.2193,-0.2236,-0.2242,-0.219,-0.219,-0.219,-0.219,-0.219,-0.219,-0.229,-0.2271,-0.2273,-0.2251,-0.2249,-0.2234,-0.223,-0.2223,-0.2219,-0.22,-0.2189,-0.2188,-0.2184,-0.217,-0.2157,-0.2157,-0.2151,-0.2142,-0.2143,-0.2184,-0.219,-0.2195,-0.2201,-0.2141,-0.2141,-0.2101,-0.2101,-0.21]}]]